Starlink 11626

operational
NORAD ID: 63556 Int'l Des: 2025-075 Owner: SPXS Country: US Constellation: starlink
LEOCIRCULAR

Über Starlink 11626

Beschreibung wird geladen...

Live-Position

3D-Globus wird geladen...

Nächste Überflüge

Höhenverlauf

Altitude vs Time

uPlot chart will show altitude changes over time

Zweizeiliger Elementsatz

1 63556U 25075J 25258.06900765 .00195754 00000-0 14933-2 0 9992
2 63556 43.0003 132.7789 0001322 263.9055 96.1662 15.70841892 25622
Epoch: 15. Sept. 2025 • Age: 11 hours

Aktueller Status

Höhe 359.0 km
Geschwindigkeit 7.70 km/s
Subsatellitenpunkt 38.80°N, 5.06°E
Startdatum 13. Apr. 2025
Alter 0.4 years
Typ internet

Technische Details

Klassifizierung Payload
Masse 960.00 kg
Trockenmasse 910.00 kg
Gesamtmasse 960.00 kg
Länge 0.30 m
Durchmesser 4.10 m
Spannweite 29.00 m
Form Box + pan
Hersteller SPXS
Bus-Typ Starlink V2MD
Phasenstatus In Orbit
Besitzer/Staat SPXS/US

Große Konstellationen

Loading constellations...